When you browse on this site, cookies collect data to enhance your experience and personalize the content and advertising you see.
Visit our Privacy Policy to learn more. By continuing to use the site, you agree to this use of cookies and data.

Hourly Weather Sevan

Today, 15 July, Wednesday

Time Temperature Precipitation Wind Pressure Humidity
00:00 +18°C° 0.1 mm 2 mps 641 mmHg 68%
01:00 +17°C° 0 mm 2 mps 641 mmHg 68%
02:00 +17°C° 0 mm 2 mps 641 mmHg 68%
03:00 +17°C° 0 mm 2 mps 641 mmHg 69%
04:00 +18°C° 0 mm 1 mps 642 mmHg 69%
05:00 +19°C° 0 mm 1 mps 642 mmHg 69%
06:00 +19°C° 0 mm 1 mps 642 mmHg 69%
07:00 +21°C° 0.2 mm 1 mps 643 mmHg 65%
08:00 +23°C° 0.2 mm 1 mps 643 mmHg 60%
09:00 +24°C° 0.2 mm 1 mps 643 mmHg 55%
10:00 +25°C° 0.7 mm 1 mps 643 mmHg 53%
11:00 +26°C° 0.7 mm 1 mps 643 mmHg 50%
12:00 +27°C° 0.7 mm 1 mps 643 mmHg 48%
13:00 +27°C° 0.4 mm 2 mps 643 mmHg 46%
14:00 +28°C° 0.4 mm 2 mps 643 mmHg 44%
15:00 +28°C° 0.4 mm 2 mps 643 mmHg 42%
16:00 +28°C° 0.1 mm 2 mps 643 mmHg 46%
17:00 +27°C° 0.1 mm 2 mps 642 mmHg 50%
18:00 +26°C° 0.1 mm 2 mps 642 mmHg 55%
19:00 +25°C° 0 mm 3 mps 642 mmHg 58%
20:00 +22°C° 0 mm 3 mps 642 mmHg 61%
21:00 +20°C° 0 mm 4 mps 642 mmHg 64%
22:00 +20°C° 0.1 mm 3 mps 642 mmHg 65%
23:00 +19°C° 0.1 mm 3 mps 642 mmHg 66%

Tomorrow, 16 July, Thursday

Time Temperature Precipitation Wind Pressure Humidity
00:00 +18°C° 0.1 mm 2 mps 641 mmHg 67%
01:00 +18°C° 0.2 mm 2 mps 641 mmHg 68%
02:00 +18°C° 0.2 mm 2 mps 641 mmHg 69%
03:00 +17°C° 0.2 mm 2 mps 641 mmHg 69%
04:00 +18°C° 0 mm 2 mps 641 mmHg 69%
05:00 +19°C° 0 mm 1 mps 641 mmHg 68%
06:00 +20°C° 0 mm 1 mps 641 mmHg 68%
07:00 +22°C° 0.1 mm 1 mps 642 mmHg 63%
08:00 +23°C° 0.1 mm 1 mps 642 mmHg 59%
09:00 +25°C° 0.1 mm 1 mps 642 mmHg 54%
10:00 +26°C° 0.3 mm 1 mps 642 mmHg 52%
11:00 +27°C° 0.3 mm 2 mps 642 mmHg 49%
12:00 +27°C° 0.3 mm 2 mps 642 mmHg 47%
13:00 +28°C° 0.3 mm 2 mps 642 mmHg 45%
14:00 +28°C° 0.3 mm 2 mps 642 mmHg 44%
15:00 +29°C° 0.3 mm 2 mps 641 mmHg 42%
16:00 +28°C° 0.2 mm 2 mps 641 mmHg 47%
17:00 +27°C° 0.2 mm 2 mps 641 mmHg 51%
18:00 +27°C° 0.2 mm 3 mps 641 mmHg 55%
19:00 +25°C° 0.1 mm 3 mps 640 mmHg 59%
20:00 +22°C° 0.1 mm 4 mps 640 mmHg 63%
21:00 +20°C° 0.1 mm 4 mps 640 mmHg 66%
22:00 +20°C° 0 mm 4 mps 640 mmHg 65%
23:00 +20°C° 0 mm 3 mps 640 mmHg 65%

Day after tomorrow, 17 July, Friday

Time Temperature Precipitation Wind Pressure Humidity
00:00 +19°C° 0 mm 3 mps 640 mmHg 64%
01:00 +19°C° 0 mm 3 mps 640 mmHg 65%
02:00 +19°C° 0 mm 3 mps 640 mmHg 66%
03:00 +18°C° 0 mm 2 mps 639 mmHg 66%
04:00 +19°C° 0 mm 2 mps 640 mmHg 67%
05:00 +19°C° 0 mm 2 mps 640 mmHg 67%
06:00 +20°C° 0 mm 2 mps 640 mmHg 68%
07:00 +21°C° 0.2 mm 2 mps 640 mmHg 63%
08:00 +24°C° 0.2 mm 2 mps 641 mmHg 58%
09:00 +26°C° 0.2 mm 2 mps 641 mmHg 53%
10:00 +27°C° 0.6 mm 2 mps 641 mmHg 50%
11:00 +28°C° 0.6 mm 2 mps 641 mmHg 47%
12:00 +29°C° 0.6 mm 3 mps 641 mmHg 44%
13:00 +29°C° 0.5 mm 3 mps 641 mmHg 42%
14:00 +30°C° 0.5 mm 3 mps 640 mmHg 41%
15:00 +30°C° 0.5 mm 4 mps 640 mmHg 40%
16:00 +29°C° 0.3 mm 3 mps 640 mmHg 44%
17:00 +28°C° 0.3 mm 3 mps 640 mmHg 49%
18:00 +27°C° 0.3 mm 3 mps 640 mmHg 53%
19:00 +26°C° 0.3 mm 3 mps 640 mmHg 57%
20:00 +24°C° 0.3 mm 3 mps 640 mmHg 61%
21:00 +21°C° 0.3 mm 3 mps 639 mmHg 66%
22:00 +20°C° 0.4 mm 3 mps 639 mmHg 68%
23:00 +20°C° 0.4 mm 3 mps 640 mmHg 70%

18 July, Saturday

Time Temperature Precipitation Wind Pressure Humidity
00:00 +19°C° 0.4 mm 2 mps 640 mmHg 72%
01:00 +19°C° 0.1 mm 2 mps 640 mmHg 72%
02:00 +19°C° 0.1 mm 2 mps 640 mmHg 71%
03:00 +18°C° 0.1 mm 2 mps 640 mmHg 71%
04:00 +19°C° 0 mm 2 mps 640 mmHg 71%
05:00 +20°C° 0 mm 1 mps 640 mmHg 70%
06:00 +21°C° 0 mm 1 mps 641 mmHg 69%
07:00 +23°C° 0 mm 1 mps 641 mmHg 64%
08:00 +25°C° 0 mm 1 mps 642 mmHg 59%
09:00 +26°C° 0 mm 1 mps 642 mmHg 53%
10:00 +28°C° 0.1 mm 1 mps 642 mmHg 49%
11:00 +29°C° 0.1 mm 2 mps 643 mmHg 44%
12:00 +30°C° 0.1 mm 2 mps 643 mmHg 39%
13:00 +31°C° 0 mm 2 mps 643 mmHg 36%
14:00 +32°C° 0 mm 1 mps 643 mmHg 32%
15:00 +32°C° 0 mm 1 mps 643 mmHg 29%
16:00 +32°C° 0 mm 1 mps 643 mmHg 34%
17:00 +31°C° 0 mm 1 mps 642 mmHg 40%
18:00 +30°C° 0 mm 1 mps 642 mmHg 45%
19:00 +28°C° 0 mm 2 mps 642 mmHg 50%
20:00 +26°C° 0 mm 3 mps 642 mmHg 54%
21:00 +23°C° 0 mm 4 mps 642 mmHg 59%
22:00 +23°C° 0 mm 4 mps 642 mmHg 58%
23:00 +22°C° 0 mm 3 mps 642 mmHg 58%

19 July, Sunday

Time Temperature Precipitation Wind Pressure Humidity
00:00 +22°C° 0 mm 3 mps 642 mmHg 58%
01:00 +21°C° 0 mm 3 mps 642 mmHg 58%
02:00 +21°C° 0 mm 3 mps 642 mmHg 58%
03:00 +21°C° 0 mm 3 mps 642 mmHg 58%
04:00 +21°C° 0 mm 2 mps 643 mmHg 60%
05:00 +21°C° 0 mm 2 mps 643 mmHg 61%
06:00 +21°C° 0 mm 2 mps 643 mmHg 63%
07:00 +24°C° 0 mm 2 mps 644 mmHg 58%
08:00 +26°C° 0 mm 2 mps 644 mmHg 54%
09:00 +28°C° 0 mm 1 mps 644 mmHg 49%
10:00 +29°C° 0 mm 2 mps 645 mmHg 46%
11:00 +31°C° 0 mm 2 mps 645 mmHg 44%
12:00 +32°C° 0 mm 2 mps 645 mmHg 41%
13:00 +32°C° 0.1 mm 2 mps 645 mmHg 39%
14:00 +34°C° 0.1 mm 2 mps 644 mmHg 37%
15:00 +34°C° 0.1 mm 2 mps 644 mmHg 36%
16:00 +32°C° 0.1 mm 2 mps 644 mmHg 42%
17:00 +31°C° 0.1 mm 2 mps 643 mmHg 48%
18:00 +30°C° 0.1 mm 3 mps 643 mmHg 54%
19:00 +28°C° 0 mm 3 mps 643 mmHg 57%
20:00 +27°C° 0 mm 3 mps 642 mmHg 60%
21:00 +25°C° 0 mm 4 mps 642 mmHg 63%
22:00 +24°C° 0 mm 3 mps 642 mmHg 61%
23:00 +24°C° 0 mm 3 mps 642 mmHg 60%

20 July, Monday

Time Temperature Precipitation Wind Pressure Humidity
00:00 +23°C° 0 mm 2 mps 642 mmHg 59%
01:00 +23°C° 0 mm 2 mps 641 mmHg 60%
02:00 +23°C° 0 mm 2 mps 641 mmHg 61%
03:00 +21°C° 0 mm 2 mps 641 mmHg 62%
04:00 +23°C° 0 mm 2 mps 641 mmHg 63%
05:00 +23°C° 0 mm 2 mps 641 mmHg 64%
06:00 +23°C° 0 mm 2 mps 641 mmHg 65%
07:00 +25°C° 0 mm 2 mps 641 mmHg 60%
08:00 +27°C° 0 mm 1 mps 641 mmHg 55%
09:00 +29°C° 0 mm 1 mps 641 mmHg 51%
10:00 +30°C° 0 mm 2 mps 641 mmHg 46%
11:00 +31°C° 0 mm 2 mps 641 mmHg 42%
12:00 +32°C° 0 mm 2 mps 641 mmHg 38%
13:00 +34°C° 0 mm 2 mps 641 mmHg 34%
14:00 +35°C° 0 mm 2 mps 641 mmHg 31%
15:00 +34°C° 0 mm 1 mps 641 mmHg 28%
16:00 +34°C° 0 mm 2 mps 640 mmHg 35%
17:00 +32°C° 0 mm 2 mps 640 mmHg 42%
18:00 +31°C° 0 mm 3 mps 639 mmHg 49%
19:00 +29°C° 0 mm 4 mps 639 mmHg 54%
20:00 +27°C° 0 mm 4 mps 639 mmHg 59%
21:00 +25°C° 0 mm 5 mps 639 mmHg 64%
22:00 +23°C° 0 mm 4 mps 639 mmHg 63%
23:00 +23°C° 0 mm 4 mps 639 mmHg 63%
Show more